Date String (YYYY-MM-DD hh:mm:ss) UTC,Instrument flags,Ambient pressure (hPa),Sample flow (lpm),Bypass flow (lpm),Sample temperature (°C),Ambient temperature (°C),ASC tube jacket temperature (°C),LED temperature (°C),Box temperature (°C),Sample RH (%),Span deviation,Mass concentration (μg/m³),Mass concentration (μg/m³),Mass concentration (μg/m³)
DateTimeUTC,F1_M11,P_M11,Q1_M11,Q2_M11,T1_M11,T2_M11,T3_M11,T4_M11,T5_M11,U1_M11,ZSPAN_M11,X0_M11,X2_M11,X1_M11
2022-04-18 03:00:00,,0828.3,4.99,0.00,26.8,26.0,00.0,35.6,28.6,12.6,0000.0,0009.36,0002.95,0001.02
2022-04-18 03:01:00,,0828.3,5.00,0.00,26.8,26.0,00.0,35.6,28.7,12.6,0000.0,0008.98,0002.80,0001.01
2022-04-18 03:02:00,,0828.3,5.00,0.00,26.8,26.0,00.0,35.6,28.7,12.5,0000.0,0009.24,0002.73,0001.00
2022-04-18 03:03:00,,0828.4,5.00,0.00,26.8,26.0,00.0,35.6,28.7,12.5,0000.0,0009.77,0002.77,0000.99
2022-04-18 03:04:00,,0828.4,5.00,0.00,26.8,26.0,00.0,35.7,28.7,12.4,0000.0,0009.60,0002.71,0001.00
2022-04-18 03:05:00,,0828.5,5.00,0.00,26.8,26.0,00.0,35.7,28.7,12.4,0000.0,0009.20,0002.60,0000.98
2022-04-18 03:06:00,,0828.5,5.00,0.00,26.8,26.0,00.0,35.7,28.7,12.4,0000.0,0008.45,0002.58,0000.97
2022-04-18 03:07:00,,0828.4,5.00,0.00,26.8,26.1,00.0,35.7,28.7,12.4,0000.0,0007.98,0002.57,0000.97
2022-04-18 03:08:00,,0828.5,5.00,0.00,26.8,26.1,00.0,35.7,28.7,12.4,0000.0,0008.14,0002.66,0000.97
2022-04-18 03:09:00,,0828.5,5.01,0.00,26.9,26.1,00.0,35.7,28.7,12.4,0000.0,0008.15,0002.69,0000.98
2022-04-18 03:10:00,,0828.4,4.98,0.00,26.9,26.1,00.0,35.7,28.7,12.4,0000.0,0007.49,0002.67,0000.99
2022-04-18 03:11:00,,0828.9,4.99,0.00,26.9,26.1,00.0,35.7,28.7,12.5,0000.0,0007.44,0002.63,0000.99
2022-04-18 03:12:00,,0829.0,4.99,0.00,26.9,26.1,00.0,35.7,28.7,12.4,0000.0,0007.47,0002.61,0000.97
2022-04-18 03:13:00,,0828.8,4.99,0.00,26.9,26.1,00.0,35.7,28.7,12.4,0000.0,0007.11,0002.63,0000.96
2022-04-18 03:14:00,,0828.7,5.00,0.00,26.9,26.1,00.0,35.7,28.7,12.4,0000.0,0007.73,0002.61,0000.97
2022-04-18 03:15:00,,0828.7,5.00,0.00,26.9,26.1,00.0,35.7,28.7,12.4,0000.0,0008.14,0002.59,0000.94
2022-04-18 03:16:00,,0828.5,5.01,0.00,26.9,26.1,00.0,35.7,28.7,12.3,0000.0,0008.44,0002.64,0000.95
2022-04-18 03:17:00,,0828.7,4.99,0.00,26.9,26.0,00.0,35.7,28.7,12.4,0000.0,0008.49,0002.62,0000.97
2022-04-18 03:18:00,,0828.9,4.99,0.00,26.9,26.0,00.0,35.7,28.7,12.4,0000.0,0008.40,0002.50,0000.98
2022-04-18 03:19:00,,0829.0,5.01,0.00,26.9,26.1,00.0,35.7,28.7,12.4,0000.0,0008.40,0002.46,0000.98
2022-04-18 03:20:00,,0829.0,5.01,0.00,26.9,26.0,00.0,35.7,28.7,12.3,0000.0,0008.30,0002.42,0000.98
2022-04-18 03:21:00,,0829.0,4.99,0.00,26.9,26.0,00.0,35.7,28.7,12.3,0000.0,0008.49,0002.52,0001.00
2022-04-18 03:22:00,,0828.7,4.99,0.00,26.8,26.0,00.0,35.7,28.7,12.4,0000.0,0008.78,0002.69,0001.02
2022-04-18 03:23:00,,0828.6,4.99,0.00,26.8,26.0,00.0,35.7,28.6,12.4,0000.0,0009.13,0002.83,0001.06
2022-04-18 03:24:00,,0828.7,5.00,0.00,26.8,26.0,00.0,35.7,28.7,12.4,0000.0,0009.07,0002.77,0001.08
2022-04-18 03:25:00,,0828.7,5.02,0.00,26.8,26.0,00.0,35.7,28.6,12.4,0000.0,0008.19,0002.83,0001.10
2022-04-18 03:26:00,,0828.7,5.00,0.00,26.8,26.0,00.0,35.7,28.6,12.3,0000.0,0007.95,0002.94,0001.16
2022-04-18 03:27:00,,0828.7,5.01,0.00,26.8,26.0,00.0,35.7,28.6,12.3,0000.0,0007.81,0002.99,0001.20
2022-04-18 03:28:00,,0828.7,5.00,0.00,26.8,26.0,00.0,35.7,28.6,12.3,0000.0,0007.94,0003.11,0001.22
2022-04-18 03:29:00,,0829.1,5.00,0.00,26.8,26.0,00.0,35.7,28.6,12.3,0000.0,0008.11,0003.18,0001.25
2022-04-18 03:30:00,,0828.9,5.00,0.00,26.8,26.0,00.0,35.7,28.6,12.3,0000.0,0008.34,0003.21,0001.28
2022-04-18 03:31:00,,0829.0,4.99,0.00,26.8,26.0,00.0,35.7,28.7,12.3,0000.0,0008.71,0003.26,0001.31
2022-04-18 03:32:00,,0829.0,5.00,0.00,26.8,26.0,00.0,35.7,28.7,12.4,0000.0,0008.62,0003.24,0001.33
2022-04-18 03:33:00,,0828.9,5.00,0.00,26.8,26.0,00.0,35.7,28.7,12.3,0000.0,0008.57,0003.22,0001.34
2022-04-18 03:34:00,,0829.0,5.01,0.00,26.8,26.0,00.0,35.7,28.7,12.3,0000.0,0008.64,0003.26,0001.37
2022-04-18 03:35:00,,0829.0,5.00,0.00,26.8,26.0,00.0,35.7,28.7,12.2,0000.0,0008.75,0003.32,0001.39
2022-04-18 03:36:00,,0829.0,5.00,0.00,26.9,26.0,00.0,35.7,28.7,12.2,0000.0,0008.95,0003.34,0001.40
2022-04-18 03:37:00,,0829.2,4.99,0.00,26.9,26.1,00.0,35.7,28.7,12.2,0000.0,0009.43,0003.38,0001.41
2022-04-18 03:38:00,,0829.2,4.99,0.00,26.9,26.1,00.0,35.7,28.7,12.2,0000.0,0009.57,0003.42,0001.42
2022-04-18 03:39:00,,0829.2,4.99,0.00,26.9,26.1,00.0,35.7,28.7,12.3,0000.0,0009.53,0003.42,0001.42
2022-04-18 03:40:00,,0829.2,5.00,0.00,26.9,26.1,00.0,35.8,28.7,12.6,0000.0,0009.50,0003.41,0001.42
2022-04-18 03:41:00,,0829.4,5.01,0.00,26.8,26.0,00.0,35.7,28.6,12.5,0000.0,0009.32,0003.43,0001.42
2022-04-18 03:42:00,,0829.3,5.01,0.00,26.8,26.0,00.0,35.8,28.6,12.5,0000.0,0009.65,0003.42,0001.42
2022-04-18 03:43:00,,0829.4,5.00,0.00,26.8,25.9,00.0,35.8,28.6,12.5,0000.0,0009.85,0003.46,0001.42
2022-04-18 03:44:00,,0829.4,4.99,0.00,26.8,25.9,00.0,35.7,28.6,12.5,0000.0,0010.16,0003.49,0001.41
2022-04-18 03:45:00,,0829.3,5.00,0.00,26.8,25.9,00.0,35.7,28.6,12.5,0000.0,0009.94,0003.47,0001.39
2022-04-18 03:46:00,,0829.3,4.99,0.00,26.7,25.9,00.0,35.7,28.5,12.5,0000.0,0009.97,0003.48,0001.40
2022-04-18 03:47:00,,0829.3,5.00,0.00,26.7,25.9,00.0,35.7,28.5,12.3,0000.0,0009.75,0003.46,0001.42
2022-04-18 03:48:00,,0829.3,5.00,0.00,26.7,25.8,00.0,35.7,28.4,12.2,0000.0,0009.28,0003.41,0001.42
2022-04-18 03:49:00,,0829.5,5.01,0.00,26.7,25.8,00.0,35.7,28.4,12.2,0000.0,0009.66,0003.40,0001.42
2022-04-18 03:50:00,,0829.5,5.00,0.00,26.6,25.8,00.0,35.7,28.4,12.1,0000.0,0009.99,0003.37,0001.44
2022-04-18 03:51:00,,0829.5,4.99,0.00,26.6,25.7,00.0,35.7,28.4,12.0,0000.0,0010.13,0003.38,0001.44
2022-04-18 03:52:00,,0829.5,4.99,0.00,26.6,25.7,00.0,35.6,28.3,12.1,0000.0,0010.38,0003.40,0001.47
2022-04-18 03:53:00,,0829.5,5.00,0.00,26.6,25.7,00.0,35.6,28.4,12.1,0000.0,0009.77,0003.39,0001.49
2022-04-18 03:54:00,,0829.6,5.01,0.00,26.6,25.7,00.0,35.6,28.3,12.1,0000.0,0009.65,0003.37,0001.50
2022-04-18 03:55:00,,0829.6,5.01,0.00,26.6,25.7,00.0,35.6,28.3,12.2,0000.0,0009.22,0003.35,0001.51
2022-04-18 03:56:00,,0829.6,5.01,0.00,26.6,25.7,00.0,35.6,28.4,12.2,0000.0,0009.36,0003.38,0001.53
2022-04-18 03:57:00,,0829.7,5.00,0.00,26.6,25.7,00.0,35.6,28.4,12.2,0000.0,0009.23,0003.35,0001.54
2022-04-18 03:58:00,,0829.7,5.00,0.00,26.6,25.7,00.0,35.5,28.4,12.2,0000.0,0009.17,0003.34,0001.54
2022-04-18 03:59:00,,0829.6,5.00,0.00,26.6,25.7,00.0,35.5,28.4,12.2,0000.0,0009.38,0003.33,0001.53
